Home   Weather   Witzenhausen   Past weeks

Flag for Germany Past Weather in Witzenhausen, Hesse, Germany — Yesterday and Last 2 Weeks

Now
16 °F

Passing clouds.


Feels Like: 16 °F
Forecast: 16 / 27 °F
Wind: 2 mph from West

Location: Fritzlar

Current Time: Jan 22, 2017 at 4:52:35 am

Latest Report: Jan 22, 2017 at 3:00 am


Visibility: 5 mi

Pressure: 30.44 "Hg

Humidity: 88%

Dew Point: 13 °F

Location of WitzenhausenLocation

Past Weather in Witzenhausen — Graph

°F

Witzenhausen Temperature Yesterday

Maximum temperature yesterday: 36 °F (at 3:00 pm)
Minimum temperature yesterday: 18 °F (at 6:00 am)
Average temperature yesterday: 24 °F

High & Low Weather Summary for the Past Weeks

 TemperatureHumidityPressure
High40 °F (Jan 11, 11:00 pm)96% (Jan 8, 6:00 pm)30.76 "Hg (Jan 8, 6:00 pm)
Low15 °F (Jan 19, 5:00 am)51% (Jan 21, 3:00 pm)29.00 "Hg (Jan 13, 3:00 am)
Average29 °F82%30.23 "Hg
* Reported Jan 7 3:00 am — Jan 22 3:00 am, Witzenhausen, Weather by CustomWeather, © 2017

Note: Actual official high and low records may vary slightly from our data, if they occured in-between our weather recording intervals... More about our weather records

Advertising

Witzenhausen Weather History for the Previous 24 Hours

Scroll right to see more
 ConditionsComfort  
Time TempWeatherWind HumidityBarometerVisibility
3:00 am
Sun, Jan 22
16 °FPassing clouds.2 mph88%30.44 "Hg5 mi
2:00 am19 °FPassing clouds.2 mph88%30.44 "Hg7 mi
12:00 am22 °FClear.5 mph85%30.45 "Hg8 mi
11:00 pm
Sat, Jan 21
22 °FClear.3 mph85%30.45 "Hg9 mi
9:00 pm25 °FClear.2 mph82%30.45 "Hg11 mi
8:00 pm25 °FClear.1 mph79%30.45 "Hg14 mi
6:00 pm26 °FClear.2 mph81%30.44 "Hg16 mi
5:00 pm31 °FPassing clouds.1 mph68%30.43 "Hg16 mi
3:00 pm36 °FSunny.1 mph51%30.43 "Hg19 mi
2:00 pm35 °FPassing clouds.1 mph56%30.45 "Hg16 mi
12:00 pm27 °FPassing clouds.2 mph70%30.50 "Hg16 mi
11:00 am23 °FPassing clouds.3 mph80%30.53 "Hg14 mi
9:00 am18 °FPassing clouds.3 mph86%30.53 "Hg16 mi
8:00 am18 °FPassing clouds.3 mph86%30.53 "Hg16 mi
6:00 am18 °FPassing clouds.3 mph86%30.53 "Hg12 mi
5:00 am18 °FPassing clouds.3 mph86%30.53 "Hg12 mi
Weather by CustomWeather, © 2017

See weather overviewHow to use our weather pages